Volver al catálogo

WORLDVIEW 1

ActivoCienciaSSO
NORAD 32060·PAYLOAD·🇺🇸 United States

Lanzado Sep 18, 2007 desde Vandenberg Space Force Base

Loading…

Próximos Pases (próximas 24 horas)

TLE

ActualizadoSource: Space-Track

Época: Sep 14, 2026, 13:29 UTC

1 32060U 07041A   26257.56215347  .00004885  00000-0  20099-3 0  9996
2 32060  97.3874  16.0288 0001997  92.5681 267.5786 15.24605403 56498

Sigue WORLDVIEW 1 en tiempo real con AllMySat

Download on the App Store